ZL1TQN Weather Reports


time (UTC)temp
C
wind
direction
speed
KPH
gust
KPH
rain 1hr
cm
rain 24hr
cm
rain mn
cm
humidity
%
barometer
mb
20260506034506 17 43 1.6 8.0 0.00 0.46 0.46 88 1028.7
20260506034006 17 22 3.2 8.0 0.00 0.46 0.46 88 1028.7
20260506033505 17 351 4.8 8.0 0.00 0.46 0.46 88 1028.8
20260506033006 17 349 1.6 4.8 0.00 0.46 0.46 89 1028.9
20260506031506 18 18 1.6 9.7 0.00 0.46 0.46 87 1028.8
20260506030006 18 43 1.6 4.8 0.00 0.46 0.46 88 1028.6
20260506025505 18 65 0.0 8.0 0.03 0.46 0.46 89 1028.6
20260506025006 18 71 1.6 8.0 0.03 0.46 0.46 88 1028.7
20260506024505 18 18 1.6 4.8 0.03 0.46 0.46 89 1028.8
20260506024006 18 18 1.6 4.8 0.03 0.46 0.46 89 1028.9
20260506023506 18 23 1.6 4.8 0.03 0.46 0.46 89 1028.9
20260506023005 18 17 3.2 4.8 0.03 0.46 0.46 89 1028.9
20260506022006 18 15 1.6 4.8 0.03 0.46 0.46 89 1028.8
20260506021506 18 2 3.2 4.8 0.03 0.46 0.46 90 1028.7
20260506021006 18 1 1.6 4.8 0.03 0.46 0.46 89 1028.7
20260506020006 18 18 1.6 4.8 0.03 0.46 0.46 91 1028.7
20260506015006 18 54 1.6 9.7 0.00 0.43 0.43 91 1028.7
20260506014505 18 19 3.2 9.7 0.00 0.43 0.43 89 1028.8
20260506014005 18 5 3.2 8.0 0.00 0.43 0.43 89 1028.8
20260506013505 18 9 3.2 4.8 0.00 0.43 0.43 89 1028.8
20260506012005 18 11 1.6 8.0 0.00 0.43 0.43 89 1029.1
20260506011506 18 19 1.6 8.0 0.00 0.43 0.43 90 1029.1
20260506011007 18 65 1.6 3.2 0.00 0.43 0.43 92 1029.1
20260506010005 17 18 1.6 4.8 0.00 0.43 0.43 93 1029.1
20260506004006 17 6 1.6 4.8 0.00 0.43 0.43 94 1029.5
20260506003505 17 316 0.0 4.8 0.00 0.43 0.43 94 1029.6
20260506003006 17 252 3.2 4.8 0.00 0.43 0.43 94 1029.6
20260506002506 17 4 1.6 4.8 0.03 0.43 0.43 94 1029.7
20260506002005 17 294 3.2 4.8 0.03 0.43 0.43 94 1029.7
20260506001506 16 313 3.2 8.0 0.05 0.43 0.43 93 1029.9
20260506001006 16 271 3.2 8.0 0.05 0.43 0.43 93 1030.0
20260506000005 17 8 1.6 4.8 0.05 0.43 0.43 93 1030.1
20260505235505 17 325 1.6 3.2 0.05 0.43 0.43 93 1030.1
20260505234505 17 358 1.6 4.8 0.05 0.43 0.43 94 1030.1
20260505234005 17 0 1.6 4.8 0.05 0.43 0.43 94 1030.2
20260505233505 17 93 1.6 4.8 0.05 0.43 0.43 94 1030.2
20260505233006 17 111 1.6 4.8 0.05 0.43 0.43 94 1030.3
20260505232505 17 36 1.6 4.8 0.03 0.43 0.43 94 1030.4
20260505232006 16 17 1.6 4.8 0.03 0.43 0.43 94 1030.5
20260505231505 16 19 1.6 4.8 0.00 0.41 0.41 93 1030.5
20260505231005 16 261 1.6 3.2 0.00 0.41 0.41 94 1030.5
20260505230006 16 134 1.6 3.2 0.00 0.41 0.41 95 1030.6
20260505225505 16 350 0.0 3.2 0.00 0.41 0.41 95 1030.5
20260505224505 16 77 1.6 3.2 0.00 0.41 0.41 95 1030.7
20260505223505 16 129 1.6 3.2 0.00 0.41 0.41 96 1030.7
20260505223006 16 184 1.6 3.2 0.00 0.41 0.41 96 1030.7
20260505222505 16 173 1.6 3.2 0.00 0.41 0.41 96 1030.7
20260505222005 16 174 1.6 4.8 0.00 0.41 0.41 96 1030.7
20260505221505 16 132 0.0 4.8 0.00 0.41 0.41 96 1030.7
20260505221006 16 85 3.2 4.8 0.00 0.41 0.41 96 1030.8
20260505220006 16 193 0.0 1.6 0.05 0.41 0.41 96 1030.8
20260505215505 16 193 0.0 3.2 0.08 0.41 0.41 96 1030.8
20260505215005 15 193 0.0 3.2 0.13 0.41 0.41 96 1030.8
20260505214505 15 177 1.6 3.2 0.15 0.41 0.41 96 1030.8
20260505214005 15 170 1.6 1.6 0.18 0.41 0.41 96 1030.8
20260505213505 15 170 0.0 1.6 0.18 0.41 0.41 96 1030.7
20260505212505 15 91 0.0 3.2 0.18 0.41 0.41 96 1030.8
20260505212005 15 131 0.0 1.6 0.18 0.41 0.41 96 1030.8
20260505211505 15 132 0.0 1.6 0.18 0.41 0.41 96 1030.8
20260505210006 15 151 0.0 3.2 0.15 0.36 0.36 96 1031.0
20260505205505 15 93 0.0 1.6 0.10 0.33 0.33 96 1031.0
20260505205006 15 115 0.0 1.6 0.05 0.28 0.28 96 1030.9
20260505204505 15 115 0.0 1.6 0.03 0.23 0.23 96 1030.9
20260505204006 15 115 0.0 1.6 0.00 0.23 0.23 96 1030.9
20260505203506 15 115 0.0 3.2 0.00 0.23 0.23 96 1030.9
20260505203006 15 140 1.6 3.2 0.00 0.23 0.23 96 1030.8
20260505202505 15 203 0.0 3.2 0.00 0.23 0.23 96 1030.8
20260505202006 15 142 1.6 3.2 0.00 0.23 0.23 96 1030.7
20260505201505 15 185 1.6 3.2 0.00 0.23 0.23 96 1030.7
20260505201005 15 136 1.6 3.2 0.00 0.23 0.23 96 1030.7
20260505200006 14 140 1.6 3.2 0.00 0.23 0.23 96 1030.6
20260505195006 14 143 1.6 3.2 0.03 0.23 0.23 96 1030.4
20260505194505 14 125 1.6 3.2 0.05 0.23 0.23 96 1030.3
20260505194005 14 147 1.6 3.2 0.08 0.23 0.23 96 1030.2
20260505193506 14 133 1.6 3.2 0.08 0.23 0.23 96 1030.2
20260505193005 14 134 0.0 1.6 0.08 0.23 0.23 96 1030.2
20260505192505 14 144 0.0 1.6 0.08 0.23 0.23 96 1030.2
20260505192005 14 140 0.0 1.6 0.08 0.23 0.23 96 1030.2
20260505191005 14 160 1.6 3.2 0.10 0.23 0.23 96 1030.2
20260505190006 14 159 1.6 3.2 0.10 0.23 0.23 96 1030.2
20260505185505 14 144 1.6 3.2 0.10 0.23 0.23 96 1030.2
20260505185005 14 128 1.6 3.2 0.08 0.20 0.20 96 1030.2
20260505183506 13 161 0.0 1.6 0.03 0.15 0.15 96 1030.2
20260505183005 14 146 0.0 3.2 0.03 0.15 0.15 96 1030.1
20260505182005 13 150 1.6 3.2 0.03 0.15 0.15 96 1030.2
20260505181506 13 144 1.6 3.2 0.00 0.13 0.13 96 1030.2
20260505181005 13 140 1.6 3.2 0.00 0.13 0.13 96 1030.2
20260505180006 13 147 1.6 3.2 0.00 0.13 0.13 96 1030.2
20260505175505 13 146 1.6 3.2 0.00 0.13 0.13 95 1030.2
20260505175005 13 143 0.0 3.2 0.00 0.13 0.13 95 1030.2
20260505174505 13 143 1.6 3.2 0.00 0.13 0.13 95 1030.2
20260505174005 13 140 1.6 3.2 0.00 0.13 0.13 95 1030.2
20260505173505 13 140 0.0 3.2 0.00 0.13 0.13 95 1030.2
20260505173005 13 140 0.0 3.2 0.00 0.13 0.13 95 1030.2
20260505172505 13 149 3.2 3.2 0.00 0.13 0.13 95 1030.2
20260505171505 13 141 1.6 3.2 0.00 0.13 0.13 95 1030.2
20260505171005 13 141 0.0 3.2 0.00 0.13 0.13 95 1030.1
20260505170005 13 141 1.6 3.2 0.03 0.13 0.13 95 1030.1
20260505165505 13 141 1.6 1.6 0.03 0.13 0.13 95 1030.1
20260505165005 13 141 1.6 3.2 0.03 0.13 0.13 95 1030.1
20260505164505 13 141 0.0 3.2 0.03 0.13 0.13 95 1030.1
20260505164005 13 141 1.6 3.2 0.03 0.13 0.13 95 1030.1
20260505163006 13 141 1.6 3.2 0.03 0.13 0.13 95 1030.1
20260505162505 13 141 1.6 4.8 0.03 0.13 0.13 95 1030.1
20260505162006 13 175 1.6 4.8 0.03 0.13 0.13 95 1030.1
20260505161505 13 144 1.6 4.8 0.03 0.13 0.13 95 1030.1
20260505161006 13 157 1.6 3.2 0.03 0.13 0.13 95 1030.1
20260505153005 13 136 0.0 3.2 0.10 0.10 0.10 95 1030.1
20260505152505 13 140 1.6 3.2 0.10 0.10 0.10 95 1030.2
20260505152005 13 128 0.0 4.8 0.10 0.10 0.10 95 1030.2
20260505151505 13 132 1.6 4.8 0.10 0.10 0.10 95 1030.2
20260505151005 13 229 1.6 4.8 0.10 0.10 0.10 95 1030.3
20260505125005 13 131 0.0 3.2 0.00 0.00 0.00 92 1031.7
20260505124504 13 131 0.0 3.2 0.00 0.00 0.00 92 1031.7
20260505124005 13 131 1.6 3.2 0.00 0.00 0.00 92 1031.7
20260505123005 13 129 0.0 3.2 0.00 0.00 0.00 92 1031.7
20260505122504 13 128 1.6 3.2 0.00 0.00 0.00 91 1031.7
20260505122005 13 147 1.6 3.2 0.00 0.00 0.00 91 1031.7
20260505121505 13 153 0.0 3.2 0.00 0.00 0.00 91 1031.7
20260505120006 13 143 0.0 3.2 0.00 0.00 0.00 91 1031.7
20260505115505 13 143 1.6 3.2 0.00 0.00 0.00 91 1031.7
20260505115005 13 135 1.6 4.8 0.00 0.00 0.00 91 1031.7
20260505114505 13 152 1.6 4.8 0.00 0.00 0.00 91 1031.8
20260505114004 13 146 1.6 4.8 0.00 0.00 0.00 91 1031.8
20260505113505 13 143 3.2 4.8 0.00 0.00 0.00 91 1031.8
20260505113005 13 148 3.2 4.8 0.00 0.00 0.00 91 1031.9
20260505112504 13 152 1.6 4.8 0.00 0.00 0.00 91 1032.0
20260505112005 13 137 1.6 4.8 0.00 0.00 0.00 91 1032.0
20260505102004 12 147 1.6 4.8 0.00 0.00 0.00 92 1032.3
20260505101504 12 146 1.6 3.2 0.00 0.00 0.00 92 1032.4
20260505101005 12 133 0.0 3.2 0.00 0.00 0.00 92 1032.4
20260505100005 11 153 1.6 3.2 0.00 0.00 0.00 91 1032.5
20260505095505 11 148 1.6 3.2 0.00 0.00 0.00 91 1032.5
20260505095005 12 149 1.6 3.2 0.00 0.00 0.00 91 1032.4
20260505094504 12 152 1.6 3.2 0.00 0.00 0.00 90 1032.5
20260505094004 12 148 1.6 3.2 0.00 0.00 0.00 90 1032.5
20260505093504 12 151 1.6 3.2 0.00 0.00 0.00 90 1032.5
20260505093005 12 147 1.6 3.2 0.00 0.00 0.00 90 1032.4
20260505092505 12 146 1.6 3.2 0.00 0.00 0.00 90 1032.4
20260505092005 12 151 1.6 3.2 0.00 0.00 0.00 90 1032.4
20260505091505 12 132 1.6 1.6 0.00 0.00 0.00 90 1032.4
20260505090005 12 148 1.6 3.2 0.00 0.00 0.00 90 1032.3
20260505085505 12 156 1.6 3.2 0.00 0.00 0.00 90 1032.3
20260505085005 12 143 1.6 3.2 0.00 0.00 0.00 90 1032.3
20260505084005 13 143 1.6 3.2 0.00 0.00 0.00 90 1032.3
20260505083006 13 154 1.6 3.2 0.00 0.00 0.00 90 1032.4
20260505082506 13 154 1.6 3.2 0.00 0.00 0.00 89 1032.3
20260505082007 13 152 1.6 3.2 0.00 0.00 0.00 89 1032.3
20260505081506 13 154 1.6 1.6 0.00 0.00 0.00 89 1032.3
20260505081006 13 154 0.0 1.6 0.00 0.00 0.00 88 1032.3
20260505080006 13 154 0.0 1.6 0.00 0.00 0.00 88 1032.3
20260505075506 13 154 0.0 1.6 0.00 0.00 0.00 88 1032.3
20260505075006 13 154 0.0 1.6 0.00 0.00 0.00 88 1032.3
20260505074506 13 154 0.0 3.2 0.00 0.00 0.00 87 1032.3
20260505074006 13 154 1.6 3.2 0.00 0.00 0.00 88 1032.3
20260505073506 14 140 1.6 3.2 0.00 0.00 0.00 87 1032.3
20260505073006 14 151 1.6 1.6 0.00 0.00 0.00 87 1032.3
20260505072507 14 144 0.0 1.6 0.00 0.00 0.00 86 1032.3
20260505071505 14 144 0.0 1.6 0.00 0.00 0.00 85 1032.2
20260505071006 14 144 0.0 3.2 0.00 0.00 0.00 85 1032.1
20260505070006 14 157 1.6 3.2 0.00 0.00 0.00 85 1032.1
20260505065506 14 157 1.6 3.2 0.00 0.00 0.00 84 1032.1
20260505065006 14 157 1.6 3.2 0.00 0.00 0.00 84 1032.2
20260505064505 14 153 1.6 4.8 0.00 0.00 0.00 84 1032.1
20260505064006 14 158 3.2 4.8 0.00 0.00 0.00 84 1032.2
20260505063505 14 149 3.2 4.8 0.00 0.00 0.00 84 1032.2
20260505063006 14 145 3.2 4.8 0.00 0.00 0.00 84 1032.2
20260505062506 14 140 1.6 3.2 0.00 0.00 0.00 83 1032.2
20260505062006 15 140 1.6 3.2 0.00 0.00 0.00 83 1032.2
20260505061505 15 140 1.6 3.2 0.00 0.00 0.00 83 1032.2
20260505061006 15 140 1.6 3.2 0.00 0.00 0.00 82 1032.2
20260505060006 15 76 0.0 0.0 0.00 0.00 0.00 80 1032.2
20260505055506 15 76 0.0 0.0 0.00 0.00 0.00 80 1032.1
20260505055006 15 76 0.0 0.0 0.00 0.00 0.00 80 1032.0
20260505054005 16 76 0.0 1.6 0.00 0.00 0.00 79 1031.9
20260505053506 16 76 0.0 1.6 0.00 0.00 0.00 78 1031.8
20260505053006 16 76 0.0 1.6 0.00 0.00 0.00 78 1031.8
20260505052505 16 76 0.0 1.6 0.00 0.00 0.00 76 1031.8
20260505052006 16 76 0.0 1.6 0.00 0.00 0.00 76 1031.8
20260505051506 16 76 0.0 1.6 0.00 0.00 0.00 76 1031.8
20260505051006 17 76 0.0 1.6 0.00 0.00 0.00 76 1031.8
20260505041506 18 29 0.0 1.6 0.00 0.00 0.00 69 1031.8
20260505041006 18 29 0.0 3.2 0.00 0.00 0.00 69 1031.8
20260505040006 18 49 0.0 4.8 0.00 0.00 0.00 68 1031.8
20260505035507 18 31 0.0 3.2 0.00 0.00 0.00 69 1031.8
20260505035006 18 23 0.0 3.2 0.00 0.00 0.00 69 1031.8